Flag for Germany Weather past 2 weeks in Lünen, North Rhine-Westphalia, Germany

Now
68 °F

Passing clouds.


Feels Like: 68 °F
Forecast: 59 / 79 °F
Wind: 7 mph from Southwest

Location: Dortmund / Wickede

Current Time: Jul 31, 2014 at 12:27:00 PM

Latest Report: Jul 31, 2014 at 11:50 AM


Visibility: N/A

Pressure: 30.01 "Hg

Humidity: 60%

Dew point: 54 °F

Location of LünenLocation

Historic Weather in Lünen — Graph

°F

Lünen temperature yesterday

Maximum temperature yesterday: 75 °F (at 2:20 PM)
Minimum temperature yesterday: 63 °F (at 5:20 AM)
Average temperature yesterday: 68 °F

Past Weeks' High & Low Weather Summary

 TemperatureHumidityPressure
High90 °F (Jul 19, 1:20 PM)100% (Jul 21, 12:50 PM)30.18 "Hg (Jul 21, 12:50 PM)
Low54 °F (Jul 31, 5:50 AM)22% (Jul 19, 2:50 PM)29.77 "Hg (Jul 20, 5:20 AM)
Average72 °F65%29.96 "Hg
* Reported Jul 16 11:20 AM — Jul 31 11:20 AM, Lünen, Weather by CustomWeather, © 2014

Note: Actual official high and low records may vary slightly from our data, if they occured in-between our weather recording intervals... More about our weather records

Advertising

Lünen weather history for previous 24 hours

 ConditionsComfort  
Time TempWeatherWind HumidityBarometerVisibility
11:20 AM
Jul 31
66 °FPassing clouds.3 mph60%30.01 "HgN/A
10:50 AM66 °FPassing clouds.3 mph64%30.01 "HgN/A
10:20 AM64 °FPassing clouds.5 mph68%30.04 "HgN/A
9:50 AM64 °FPassing clouds.6 mph68%30.01 "HgN/A
9:20 AM64 °FPassing clouds.3 mph73%30.01 "HgN/A
8:50 AM63 °FSunny.3 mph77%30.01 "Hg10 mi
8:20 AM61 °FSunny.3 mph83%30.01 "Hg10 mi
7:50 AM59 °FScattered clouds.3 mph88%30.01 "HgN/A
7:20 AM59 °FScattered clouds.2 mph88%30.01 "HgN/A
6:50 AM57 °FPassing clouds.2 mph94%30.01 "HgN/A
6:20 AM55 °FClear.3 mph88%30.01 "Hg10 mi
5:50 AM54 °FClear.3 mph88%30.01 "Hg10 mi
5:20 AM55 °FClear.3 mph94%30.01 "Hg10 mi
10:50 PM
Jul 30
64 °FClear.3 mph73%29.98 "Hg10 mi
10:20 PM66 °FSunny.3 mph68%29.98 "Hg10 mi
9:50 PM66 °FSunny.3 mph68%29.95 "Hg10 mi
9:20 PM66 °FSunny.2 mph64%29.95 "Hg10 mi
8:50 PM68 °FSunny.3 mph60%29.95 "Hg10 mi
8:20 PM70 °FSunny.3 mph53%29.95 "Hg10 mi
7:50 PM68 °FSunny.5 mph53%29.92 "Hg10 mi
7:20 PM70 °FPassing clouds.6 mph50%29.92 "HgN/A
6:50 PM72 °FPassing clouds.6 mph47%29.92 "HgN/A
6:20 PM72 °FPassing clouds.8 mph57%29.92 "HgN/A
5:50 PM72 °FPassing clouds.8 mph53%29.92 "HgN/A
5:20 PM73 °FPassing clouds.8 mph50%29.92 "HgN/A
4:50 PM75 °FPassing clouds.7 mph47%29.92 "HgN/A
4:20 PM73 °FSunny.6 mph47%29.92 "Hg10 mi
3:50 PM75 °FSunny.6 mph41%29.92 "Hg10 mi
3:20 PM72 °FPassing clouds.9 mph50%29.92 "HgN/A
2:50 PM73 °FPassing clouds.8 mph47%29.92 "HgN/A
2:20 PM75 °FPassing clouds.6 mph50%29.92 "HgN/A
1:50 PM70 °FPassing clouds.7 mph57%29.89 "HgN/A
1:20 PM72 °FPassing clouds.6 mph61%29.92 "HgN/A
12:50 PM68 °FScattered clouds.6 mph69%29.89 "HgN/A
12:20 PM68 °FScattered clouds.8 mph69%29.89 "HgN/A
Weather by CustomWeather, © 2014

See weather overviewHow to use our weather pages